Flag for Costa Rica Weather past 2 weeks in Alajuela, Costa Rica

Now
77 °F

Scattered clouds.


Feels Like: 79 °F
Forecast: N/A
Wind: 14 mph from East

Location: Juan Santamaria

Current Time: Mar 31, 2015 at 2:50:24 PM

Latest Report: Mar 31, 2015 at 12:00 PM


Visibility: N/A

Pressure: 30.03 "Hg

Humidity: 54%

Dew point: 59 °F

Location of AlajuelaLocation

Historic Weather in Alajuela — Graph

°F

Alajuela temperature yesterday

Maximum temperature yesterday: 84 °F (at 1:00 PM)
Minimum temperature yesterday: 68 °F (at 2:00 AM)
Average temperature yesterday: 73 °F

Past Weeks' High & Low Weather Summary

 TemperatureHumidityPressure
High88 °F (Mar 26, 2:00 PM)83% (Mar 27, 9:00 PM)30.15 "Hg (Mar 27, 9:00 PM)
Low59 °F (Mar 27, 4:00 AM)24% (Mar 27, 11:00 AM)29.95 "Hg (Mar 16, 4:00 PM)
Average74 °F55%30.06 "Hg
* Reported Mar 16 12:00 Noon — Mar 31 12:00 Noon, Alajuela, Weather by CustomWeather, © 2015

Note: Actual official high and low records may vary slightly from our data, if they occured in-between our weather recording intervals... More about our weather records

Advertising

Alajuela weather history for previous 24 hours

 ConditionsComfort  
Time TempWeatherWind HumidityBarometerVisibility
12:00 PM
Tue, Mar 31
77 °FScattered clouds.14 mph54%30.03 "HgN/A
11:00 AM81 °FScattered clouds.16 mph45%30.05 "HgN/A
10:00 AM79 °FScattered clouds.15 mph51%30.07 "HgN/A
9:00 AM75 °FPartly sunny.15 mph54%30.08 "HgN/A
8:00 AM73 °FScattered clouds.15 mph65%30.07 "HgN/A
7:00 AM72 °FScattered clouds.9 mph69%30.06 "HgN/A
6:00 AM70 °FScattered clouds.7 mph73%30.02 "HgN/A
5:00 AM70 °FPassing clouds.6 mph73%30.01 "HgN/A
4:00 AM66 °FPassing clouds.7 mph78%30.01 "HgN/A
3:00 AM68 °FPassing clouds.9 mph78%N/AN/A
2:00 AM68 °FPassing clouds.7 mph78%30.02 "HgN/A
1:00 AM70 °FPassing clouds.13 mph69%30.04 "HgN/A
12:00 AM70 °FPassing clouds.12 mph69%30.06 "HgN/A
11:00 PM
Mon, Mar 30
70 °FPassing clouds.12 mph69%30.07 "HgN/A
10:00 PM70 °FPassing clouds.12 mph69%30.09 "HgN/A
9:00 PM70 °FPassing clouds.13 mph69%30.07 "HgN/A
8:00 PM72 °FPassing clouds.12 mph69%30.07 "HgN/A
7:00 PM72 °FPassing clouds.12 mph69%30.05 "HgN/A
6:00 PM73 °FPassing clouds.9 mph65%30.03 "HgN/A
5:00 PM77 °FPartly sunny.12 mph57%30.01 "HgN/A
4:00 PM77 °FBroken clouds.12 mph57%30.01 "HgN/A
3:00 PM79 °FPartly sunny.14 mph51%30.01 "HgN/A
2:00 PM81 °FPartly sunny.13 mph48%30.02 "HgN/A
Weather by CustomWeather, © 2015

See weather overviewHow to use our weather pages